A-11 Canister half - Orbit

View from above orbital plane
View from above orbital plane
View from above satellite
View from above satellite

Ground track
Ground track

The orbit data is extracted from the following two-line orbital elements,

1 00051U 60009C   13140.83886395 -.00000086  00000-0  00000+0 0  4438
2 00051 047.2141 063.3239 0104050 037.6350 008.3714 12.18221445349006
Epoch (UTC): 20 May 2013 20:07:57
Eccentricity: 0.0104050
inclination: 47.2141°
perigee height: 1517 km
apogee height: 1683 km
right ascension of ascending node: 63.3239°
argument of perigee: 37.6350°
revolutions per day: 12.18221445
mean anomaly at epoch: 8.3714°
orbit number at epoch: 34900

The dashed part of the orbit path shows where the satellite is in the earth's shadow,  

Developed and maintained by Chris Peat, Heavens-Above GmbH. Please read the updated FAQ before sending e-mail. Imprint. DLR